CAPE
0 0 0 0 0 0 0 0 0 0 0 0 0 0 0 0 0 0 0 3 9 23 294 850 912 702 462 373 302 187 87 7 14 0 0 0 0 0 0 0 0 0 0 0 0 0 0 0 0
0 0 0 0 0 0 0 0 0 0 0 0 0 0 0 0 0 0 0 15 27 92 359 491 960 762 607 441 376 249 144 100 58 6 0 0 0 0 0 0 0 0 0 0 0 0 0 0 0
0 0 0 0 0 0 0 0 0 0 0 0 0 0 0 0 0 0 0 26 6 82 267 272 1027 835 724 601 454 321 208 200 157 10 0 0 0 0 0 0 0 0 0 0 0 0 0 10 18
0 0 0 0 0 0 0 0 0 0 0 0 0 0 0 0 0 0 78 6 0 15 124 284 1049 882 901 774 605 462 309 272 258 128 44 13 0 18 0 0 0 0 0 0 0 95 130 150 148
0 0 0 0 0 0 0 0 0 0 0 0 0 0 0 0 1 110 53 13 0 0 3 152 1100 985 1090 852 599 586 440 361 374 350 181 104 126 80 36 1 25 38 69 154 190 259 385 459 483
0 0 0 0 0 0 0 0 0 0 0 0 0 0 0 0 4 135 36 2 0 0 0 0 1048 991 1104 1136 869 617 529 454 447 526 449 386 333 234 81 84 115 151 201 251 356 527 567 544 370
0 0 0 0 0 0 0 0 0 0 0 0 0 0 0 0 0 199 76 10 0 0 0 0 318 607 1254 1177 964 772 642 555 539 664 633 605 570 548 450 360 248 244 353 476 646 778 694 680 363
0 0 0 0 0 0 0 0 0 0 0 0 0 0 0 0 0 130 109 42 2 0 0 0 60 221 414 514 1205 1013 808 720 698 817 840 782 788 814 829 729 731 375 504 689 901 1015 887 758 497
0 0 0 0 0 0 0 0 0 0 0 0 0 0 0 0 0 0 0 0 4 7 0 0 3 46 148 183 430 1066 916 962 895 916 993 753 491 561 498 700 687 621 715 1055 1122 1172 1193 806 426
0 0 0 0 0 0 0 0 0 0 0 0 0 0 0 0 0 0 0 1 0 10 27 7 21 23 76 115 152 485 430 405 507 473 511 540 356 292 507 559 775 707 963 1370 1653 1602 1238 702 213
0 0 0 0 0 0 0 0 0 0 0 0 0 0 0 0 0 0 0 0 0 0 41 85 90 46 8 81 130 280 372 325 387 332 272 399 314 301 518 369 520 717 1076 1013 1156 1384 1023 375 143
0 0 0 0 0 0 0 0 0 0 0 0 0 0 0 0 0 0 0 0 0 0 0 123 146 83 31 36 102 142 321 275 263 308 216 257 226 147 237 243 148 200 474 959 748 583 409 288 170
0 0 0 0 0 0 0 0 0 0 0 0 0 0 0 0 0 0 0 0 0 0 0 13 166 135 104 58 94 152 284 241 182 258 266 202 199 50 101 86 97 94 163 461 381 245 160 97 26
0 0 0 0 0 0 0 0 0 0 0 0 0 0 0 0 0 0 0 0 0 0 0 0 159 174 162 173 170 196 211 259 212 264 302 228 164 15 26 66 42 53 72 110 158 100 32 14 15
0 0 0 0 0 0 0 0 0 0 0 0 0 0 0 0 0 0 0 0 0 0 0 0 77 160 194 275 252 283 281 293 263 280 306 299 184 65 33 59 15 12 14 39 46 82 38 12 0
0 0 0 0 0 0 0 0 0 0 0 0 0 0 0 0 0 0 0 0 0 0 0 0 0 192 243 305 312 319 409 413 351 292 321 343 285 248 121 100 54 15 9 10 17 33 23 0 0
0 0 0 0 0 0 0 0 0 0 0 0 0 0 0 0 0 0 0 0 0 0 0 0 0 86 339 381 368 302 458 507 458 357 351 380 366 366 143 123 45 35 10 0 0 0 0 0 0
0 0 0 0 0 0 0 0 0 0 0 0 0 0 0 0 0 0 0 0 0 0 0 0 0 0 145 129 139 285 447 452 337 428 513 559 571 318 172 127 49 5 3 0 0 0 0 0 0
0 0 0 0 0 0 0 0 0 0 0 0 0 0 0 0 0 0 0 0 0 0 0 0 0 9 78 286 405 319 485 207 208 400 587 597 487 303 223 125 28 2 5 9 0 0 6 1 0
0 0 0 0 0 0 0 0 0 0 0 0 0 0 0 0 0 0 0 0 0 0 0 0 0 213 290 492 236 227 100 22 108 261 485 473 423 308 202 28 7 0 16 0 0 2 0 0 0
0 0 0 0 0 0 0 0 0 0 0 0 0 0 0 0 0 0 0 0 0 0 0 0 120 450 449 275 13 0 0 2 20 31 91 241 340 214 117 21 17 2 0 0 1 0 0 0 0
0 0 0 0 0 0 0 0 0 0 0 0 0 0 0 0 0 0 0 0 0 0 19 274 476 562 398 288 124 164 84 80 2 0 0 51 96 94 92 40 0 0 0 0 0 0 0 0 0
0 0 0 0 0 0 0 0 0 0 0 0 0 0 0 0 0 0 0 0 0 0 140 456 606 634 312 205 143 41 34 0 0 0 3 0 2 28 10 1 1 0 0 0 0 0 0 0 0
0 0 0 0 0 0 0 0 0 0 0 0 0 0 0 0 0 0 0 0 0 25 405 451 594 320 216 137 18 55 43 0 4 0 0 0 0 0 3 0 0 0 0 0 0 0 0 0 0
0 0 0 0 0 0 0 0 0 0 0 0 0 0 0 0 0 0 0 0 39 277 301 346 381 154 55 29 12 3 0 0 24 0 0 0 0 0 0 0 0 0 0 0 0 0 0 0 0
0 0 0 0 0 0 0 0 0 0 0 0 0 0 0 0 0 0 0 23 195 278 229 243 194 0 0 0 0 0 0 0 0 0 0 0 0 0 0 0 0 0 0 0 0 0 0 0 0
0 0 0 0 0 0 0 0 0 0 0 0 0 0 0 0 0 0 27 169 297 207 42 10 0 0 0 0 0 0 0 0 0 0 0 0 0 0 0 0 0 0 0 0 0 0 0 0 0
0 0 0 0 0 0 0 0 0 0 0 0 0 0 0 0 0 16 123 155 81 29 0 0 0 0 0 0 0 0 0 0 0 0 0 0 0 0 0 0 0 0 0 0 0 0 0 3 0
0 0 0 0 0 0 0 0 0 0 0 0 0 0 0 0 1 99 191 83 33 0 0 0 0 0 0 0 0 0 0 0 0 0 0 0 0 0 0 0 0 0 0 0 0 0 0 0 0
0 0 0 0 0 0 0 0 0 0 0 0 0 0 0 0 35 144 117 47 39 0 0 0 0 0 0 0 0 0 0 0 0 0 0 0 0 0 0 0 0 0 0 0 0 0 5 0 0
CIN
0 0 0 0 0 0 0 0 0 0 0 0 0 0 0 0 0 0 0 -730 -774 -1024 -747 -553 -483 -459 -491 -499 -490 -504 -531 -152 -550 0 0 0 0 0 0 0 0 0 0 0 0 0 0 0 0
0 0 0 0 0 0 0 0 0 0 0 0 0 0 0 0 0 0 -99 -778 -946 -977 -758 -668 -515 -491 -505 -520 -516 -544 -547 -540 -532 -181 0 0 0 0 0 0 0 0 0 0 0 0 0 0 0
0 0 0 0 0 0 0 0 0 0 0 0 0 0 0 0 0 0 0 -892 -216 -970 -815 -769 -532 -521 -513 -520 -532 -560 -561 -544 -522 -408 0 0 0 0 0 0 0 0 0 0 0 0 0 -102 -123
0 0 0 0 0 0 0 0 0 0 0 0 0 0 0 0 0 0 -748 -986 -27 -1081 -904 -787 -550 -527 -501 -505 -534 -549 -555 -530 -505 -522 -536 -563 0 -475 0 0 0 0 0 0 0 -123 -86 -42 -26
0 0 0 0 0 0 0 0 0 0 0 0 0 0 0 0 -20 -660 -762 -664 0 0 -577 -848 -553 -523 -464 -492 -531 -517 -533 -524 -471 -453 -474 -477 -420 -416 -459 -30 -440 -383 -289 -182 -134 -92 -38 -14 0
0 0 0 0 0 0 0 0 0 0 0 0 0 0 0 0 -250 -565 -728 -432 0 0 0 0 -580 -538 -487 -485 -484 -505 -509 -492 -449 -408 -400 -380 -350 -353 -417 -415 -360 -303 -227 -169 -103 -41 -18 -20 -17
0 0 0 0 0 0 0 0 0 0 0 0 0 0 0 0 0 -518 -596 -720 0 0 0 0 -741 -627 -484 -502 -492 -478 -488 -479 -443 -373 -343 -319 -301 -271 -260 -258 -269 -250 -176 -104 -36 -15 -13 -9 -33
0 0 0 0 0 0 0 0 0 0 0 0 0 0 0 0 0 -472 -512 -600 -601 0 0 0 -867 -766 -689 -662 -484 -463 -449 -425 -408 -357 -312 -290 -261 -216 -189 -159 -122 -213 -139 -74 -13 0 -4 -9 -26
0 0 0 0 0 0 0 0 0 0 0 0 0 0 0 0 0 0 0 0 -462 -198 0 0 -624 -871 -808 -779 -670 -448 -440 -377 -366 -351 -289 -316 -379 -315 -299 -204 -152 -147 -106 -17 -6 0 0 -7 -49
0 0 0 0 0 0 0 0 0 0 0 0 0 0 0 0 0 0 0 -176 0 -548 -730 -528 -943 -936 -875 -807 -811 -595 -579 -561 -500 -496 -449 -390 -447 -461 -322 -253 -153 -133 -68 -2 0 0 -3 -20 -154
0 0 0 0 0 0 0 0 0 0 0 0 0 0 0 0 0 0 0 0 0 0 -519 -786 -856 -923 -786 -837 -861 -701 -634 -634 -578 -593 -599 -464 -440 -436 -317 -362 -252 -148 -63 -71 -38 -7 -20 -122 -215
0 0 0 0 0 0 0 0 0 0 0 0 0 0 0 0 0 0 0 0 0 0 0 -658 -756 -848 -967 -923 -881 -827 -707 -711 -681 -630 -653 -540 -489 -521 -458 -442 -471 -387 -232 -99 -120 -124 -164 -179 -227
0 0 0 0 0 0 0 0 0 0 0 0 0 0 0 0 0 0 0 0 0 0 0 -658 -728 -812 -865 -925 -898 -878 -786 -771 -764 -680 -618 -569 -517 -542 -548 -561 -510 -468 -386 -215 -232 -266 -286 -285 -297
0 0 0 0 0 0 0 0 0 0 0 0 0 0 0 0 0 0 0 0 0 0 0 0 -742 -783 -832 -871 -873 -885 -839 -799 -778 -681 -603 -559 -549 -618 -579 -555 -524 -487 -460 -386 -323 -333 -385 -401 -290
0 0 0 0 0 0 0 0 0 0 0 0 0 0 0 0 0 0 0 0 0 0 0 0 -722 -823 -849 -837 -815 -832 -841 -804 -759 -666 -582 -524 -582 -586 -540 -523 -550 -509 -526 -439 -385 -287 -318 -340 0
0 0 0 0 0 0 0 0 0 0 0 0 0 0 0 0 0 0 0 0 0 0 0 0 0 -836 -857 -823 -794 -797 -782 -751 -702 -662 -596 -542 -539 -519 -527 -468 -422 -506 -533 -485 -398 -281 -259 0 0
0 0 0 0 0 0 0 0 0 0 0 0 0 0 0 0 0 0 0 0 0 0 0 0 0 -871 -826 -818 -782 -778 -757 -692 -643 -639 -607 -563 -524 -451 -517 -481 -401 -444 -439 0 0 0 0 0 0
0 0 0 0 0 0 0 0 0 0 0 0 0 0 0 0 0 0 0 0 0 0 0 0 0 0 -932 -986 -920 -791 -705 -682 -705 -616 -542 -477 -424 -484 -481 -403 -409 -437 -264 0 0 0 0 0 0
0 0 0 0 0 0 0 0 0 0 0 0 0 0 0 0 0 0 0 0 0 0 0 0 0 -978 -1014 -836 -716 -727 -653 -760 -754 -621 -487 -464 -453 -462 -409 -380 -390 -79 -287 -267 0 0 -161 0 0
0 0 0 0 0 0 0 0 0 0 0 0 0 0 0 0 0 0 0 0 0 0 0 0 0 -940 -895 -726 -822 -765 -832 -634 -783 -685 -524 -495 -433 -404 -356 -409 -167 0 -263 0 0 -122 0 0 0
0 0 0 0 0 0 0 0 0 0 0 0 0 0 0 0 0 0 0 0 0 0 0 0 -909 -851 -790 -788 -901 0 0 -426 -798 -792 -669 -518 -375 -343 -327 -372 -307 -141 0 0 0 0 0 0 0
0 0 0 0 0 0 0 0 0 0 0 0 0 0 0 0 0 0 0 0 0 0 -758 -816 -798 -743 -766 -742 -692 -590 -616 -609 -547 0 0 -529 -408 -340 -322 -297 -28 0 0 0 0 0 0 0 0
0 0 0 0 0 0 0 0 0 0 0 0 0 0 0 0 0 0 0 0 0 0 -798 -713 -689 -653 -745 -720 -656 -674 -634 0 0 0 -552 0 -209 -359 -308 -66 -176 0 0 0 0 0 0 0 0
0 0 0 0 0 0 0 0 0 0 0 0 0 0 0 0 0 0 0 0 0 -578 -690 -666 -633 -697 -706 -689 -742 -640 -599 0 -203 -69 0 0 0 0 -194 0 0 0 0 0 0 0 0 0 0
0 0 0 0 0 0 0 0 0 0 0 0 0 0 0 0 0 0 0 0 -906 -684 -678 -668 -615 -671 -707 -712 -738 -278 -34 -32 -540 0 0 0 0 0 0 0 0 0 0 0 0 0 0 0 0
0 0 0 0 0 0 0 0 0 0 0 0 0 0 0 0 0 0 0 -924 -660 -609 -635 -617 -604 0 0 0 0 0 0 0 0 0 0 -48 0 0 0 0 0 0 0 0 0 0 0 0 0
0 0 0 0 0 0 0 0 0 0 0 0 0 0 0 0 0 0 -921 -657 -543 -557 -663 -661 0 0 0 0 0 0 0 0 0 0 0 0 0 0 0 0 0 0 0 0 0 0 0 0 0
0 0 0 0 0 0 0 0 0 0 0 0 0 0 0 0 0 -910 -687 -622 -642 -645 0 0 0 0 0 0 0 0 0 0 0 0 0 0 0 0 0 0 0 0 0 0 0 0 0 -101 0
0 0 0 0 0 0 0 0 0 0 0 0 0 0 0 0 -117 -722 -596 -641 -657 0 0 0 0 0 0 0 0 0 0 0 0 0 0 0 0 0 0 0 0 0 0 0 0 0 0 0 0
0 0 0 0 0 0 0 0 0 0 0 0 0 0 0 0 -793 -620 -594 -625 -591 0 0 0 0 0 0 0 0 0 0 0 0 0 0 0 0 0 0 0 0 0 0 0 0 0 -94 0 0
Wind_Speed
7 4 1 2 4 5 4 8 3 4 2 4 5 4 11 8 9 8 3 11 11 15 15 19 21 21 20 19 18 18 17 17 17 17 18 17 16 15 14 11 10 9 9 8 7 6 5 3 2
4 3 2 2 5 3 6 6 7 5 3 6 4 1 2 2 2 3 5 8 9 15 14 16 23 22 22 20 19 19 19 18 19 18 18 18 17 15 14 13 12 10 9 8 7 6 5 4 4
4 1 3 4 4 6 6 5 1 4 4 5 5 1 6 4 2 7 1 12 13 14 14 15 24 23 23 22 21 21 20 19 19 19 18 18 17 16 15 14 13 11 10 8 7 6 6 6 5
3 2 3 3 8 7 5 3 6 10 9 5 1 4 1 4 6 7 12 14 14 13 15 19 24 23 23 23 22 21 21 20 20 20 19 18 17 16 15 15 13 12 10 9 8 7 7 7 7
2 3 2 3 6 4 4 8 8 11 5 3 3 1 0 6 5 10 14 14 16 14 14 16 24 22 21 21 22 21 22 21 20 19 19 18 17 16 16 15 14 13 11 10 9 8 8 6 8
3 3 0 6 7 1 5 6 5 6 2 5 3 8 4 3 7 8 10 12 12 16 14 13 21 22 22 22 22 21 21 21 20 19 19 18 17 16 16 15 14 13 12 11 10 10 7 7 7
5 3 5 4 3 4 4 3 4 4 3 7 1 7 3 4 6 10 12 7 6 7 10 11 14 18 22 21 21 21 21 21 20 18 18 18 17 16 15 14 13 12 12 11 11 10 8 8 9
4 4 3 5 3 5 5 3 4 6 3 7 8 3 4 5 2 6 4 2 2 5 9 13 12 14 14 14 22 22 21 20 20 19 19 18 18 17 16 13 12 13 12 12 11 11 9 9 9
5 2 6 7 8 5 5 10 3 3 2 7 8 5 6 9 10 7 3 1 3 5 6 6 10 13 14 13 14 19 22 20 20 19 19 16 9 10 12 12 14 14 13 13 12 12 10 10 10
5 6 10 8 10 4 5 2 14 7 4 4 9 7 7 4 6 9 9 13 10 12 10 12 12 14 12 9 9 12 10 10 11 11 11 9 7 7 9 11 16 16 15 13 12 13 12 11 3
7 11 17 12 10 6 8 7 4 11 11 8 6 13 6 10 7 9 13 12 17 20 9 15 15 13 12 12 8 6 6 7 8 11 9 8 6 6 6 4 4 4 10 4 8 8 4 5 3
6 11 15 13 10 3 13 8 11 13 16 10 13 9 8 11 9 11 11 11 10 11 15 15 17 13 14 9 8 10 9 9 8 10 11 8 6 6 6 4 4 4 4 5 5 3 4 5 5
16 8 6 11 13 12 11 19 18 17 15 18 16 10 10 11 12 9 11 9 9 6 10 14 14 15 13 12 9 10 11 10 10 8 10 10 9 7 6 4 4 6 4 5 4 4 4 5 6
2 6 18 14 14 8 12 20 16 16 15 15 15 15 11 11 11 8 9 10 8 9 10 12 14 16 14 15 16 12 10 9 9 8 10 12 8 7 7 6 6 4 5 5 5 6 5 5 4
5 9 10 11 5 8 4 24 28 21 19 19 15 13 12 11 10 12 10 9 11 10 11 11 16 13 16 18 14 10 9 9 9 8 9 12 10 9 8 5 4 6 5 5 4 4 4 4 3
4 5 16 14 14 6 8 35 7 8 14 22 17 14 9 12 11 9 10 10 11 10 10 8 9 13 14 14 11 9 8 8 8 8 8 12 12 10 7 6 5 4 4 4 4 4 3 3 4
5 15 15 11 6 8 17 31 12 10 11 16 13 11 12 15 12 10 12 13 12 13 11 10 10 14 16 10 7 7 8 8 7 7 7 11 12 10 7 5 4 5 4 4 4 3 3 3 4
11 15 4 4 4 10 18 31 19 14 11 17 16 16 16 17 19 17 21 16 11 10 9 8 8 9 8 5 5 4 5 4 6 7 7 11 8 9 8 6 5 5 4 3 3 4 3 3 3
7 4 2 2 8 13 19 26 21 16 18 22 22 20 20 21 14 15 14 13 9 9 8 9 9 7 9 5 6 4 6 5 4 5 8 9 8 9 7 5 5 5 5 6 4 1 4 3 3
10 9 8 6 11 4 10 19 14 11 14 12 15 17 15 13 14 18 15 8 11 14 10 9 9 9 7 5 3 4 5 3 3 5 7 8 9 10 7 6 6 5 4 4 4 4 2 2 4
7 11 10 7 9 16 13 21 15 13 12 14 18 16 10 11 14 15 12 11 8 9 10 8 7 8 7 8 7 5 6 4 3 3 4 4 7 6 7 6 5 5 4 4 4 5 6 4 2
15 4 8 5 5 10 5 21 20 19 22 16 10 17 10 12 14 9 11 9 9 9 5 6 7 9 9 9 8 13 6 5 3 4 3 4 5 5 5 5 5 5 3 4 4 4 4 3 4
8 12 9 12 10 3 6 6 23 12 18 20 22 19 13 19 14 13 11 10 6 6 6 6 8 7 8 8 10 7 6 3 4 4 7 5 4 6 6 6 5 5 4 4 5 4 4 3 3
4 4 9 10 3 5 10 9 30 13 19 19 14 10 16 11 11 10 9 5 5 7 7 7 10 6 7 8 8 9 9 7 6 5 5 4 3 4 5 5 5 5 4 5 4 4 5 5 4
4 3 1 1 4 13 13 12 27 8 2 6 8 10 11 11 10 7 7 7 8 9 8 8 10 8 7 8 8 8 8 8 8 7 5 6 4 2 5 5 5 4 5 5 4 5 4 5 4
7 10 6 7 5 5 14 16 13 16 21 17 11 10 9 10 9 9 7 7 8 10 9 9 10 9 8 9 8 6 7 5 5 5 5 4 4 3 5 4 5 5 5 4 5 3 4 5 4
3 5 7 3 3 2 6 16 18 20 15 16 9 8 11 11 7 6 7 9 10 10 9 11 12 10 9 10 8 7 7 8 6 6 5 4 3 3 5 5 5 5 4 4 4 4 4 4 4
6 5 4 1 5 5 7 9 13 4 11 18 11 8 10 6 6 7 9 10 9 9 7 9 12 12 9 10 8 7 7 7 6 6 6 5 5 5 5 5 4 3 4 4 5 3 4 5 3
1 2 2 4 5 5 4 8 8 12 8 6 11 14 10 10 9 10 10 9 10 9 9 8 11 12 9 9 7 8 6 6 6 6 5 6 5 5 5 4 4 3 3 3 4 5 4 4 4
4 4 3 3 8 6 2 11 9 9 7 8 15 16 10 9 10 10 11 10 11 11 10 10 9 10 8 7 7 7 6 6 6 6 6 6 6 4 4 4 3 3 3 3 4 4 4 5 5
Wind_Direction
178 183 174 60 76 70 260 260 238 271 240 234 253 158 175 178 162 208 319 161 130 143 162 167 171 177 176 175 170 166 159 157 155 156 156 154 156 157 155 158 163 165 163 160 160 162 162 177 204
168 151 30 94 105 119 254 245 227 237 247 269 93 43 61 219 262 126 103 163 139 147 161 168 174 180 178 177 174 169 166 165 165 167 165 162 164 164 165 169 175 179 179 179 181 183 198 205 215
163 202 113 150 165 182 227 236 275 300 279 278 121 157 144 210 285 154 345 134 135 156 164 172 179 182 180 180 178 174 171 173 173 172 170 170 171 171 173 179 183 186 189 196 203 211 217 230 231
168 32 6 146 224 247 217 312 303 317 310 250 132 85 180 205 164 189 134 138 148 165 171 178 181 186 183 182 182 178 176 178 180 177 175 176 178 178 182 186 189 195 198 206 219 230 245 248 248
53 64 222 242 243 237 259 274 289 292 250 254 136 201 144 321 106 132 150 158 164 174 182 180 183 187 188 187 186 184 181 183 186 182 180 179 183 184 187 191 194 199 204 212 225 240 256 272 263
74 110 102 241 243 282 259 254 264 266 274 271 158 129 204 207 141 175 165 176 178 172 183 182 186 189 192 190 191 190 187 187 189 188 184 182 185 189 191 196 200 202 211 215 224 239 246 252 260
141 124 215 253 268 317 262 273 226 287 248 258 180 135 268 246 249 158 177 167 162 178 179 181 187 196 197 196 193 195 193 192 189 190 191 188 186 191 194 201 206 212 216 221 234 245 244 241 254
143 122 241 237 188 267 249 232 187 70 320 309 143 186 237 228 99 87 69 103 167 181 187 191 190 195 201 198 198 197 198 196 193 192 195 193 192 195 192 202 209 217 221 225 234 240 245 244 244
139 115 225 228 166 229 331 353 268 356 7 340 318 150 216 148 143 129 132 194 188 229 209 201 207 202 203 201 202 199 201 200 199 198 200 196 193 195 196 197 208 220 222 230 232 232 235 242 247
170 180 224 214 212 194 298 321 295 326 14 308 308 7 345 148 153 173 185 213 210 216 208 194 203 209 204 204 198 199 198 201 203 199 197 195 190 185 186 199 210 221 228 230 232 234 231 245 219
205 215 228 246 230 252 261 280 255 295 297 219 257 300 228 261 248 214 208 214 210 217 198 203 207 203 197 200 188 191 193 198 202 199 184 185 188 194 194 182 201 212 233 217 228 228 215 215 220
250 219 230 258 247 251 254 273 249 254 258 290 270 257 264 289 224 238 235 217 205 214 217 205 208 201 199 192 195 193 195 199 201 199 181 174 183 191 191 189 196 210 210 209 203 204 201 217 235
246 239 243 248 255 251 269 264 260 252 262 277 276 270 267 262 264 258 222 256 262 213 225 214 198 202 196 192 195 200 202 202 199 191 187 182 188 187 185 187 199 215 192 203 198 193 198 218 230
139 223 244 255 266 252 259 267 263 261 262 261 266 266 250 246 247 259 279 268 263 248 229 215 204 204 188 197 199 201 200 200 192 192 191 187 184 178 185 198 219 207 200 201 191 198 198 219 210
259 290 280 237 207 242 358 268 253 250 265 267 262 256 259 248 247 240 238 241 235 247 248 193 206 194 197 202 205 200 197 189 192 191 181 184 181 191 190 198 201 219 194 197 197 199 186 210 220
222 186 243 261 227 222 164 259 236 227 237 256 262 262 256 260 256 256 245 247 257 248 239 214 200 194 195 199 198 199 191 183 185 183 177 181 185 181 176 195 205 202 194 183 183 173 192 188 204
236 238 230 263 211 207 204 262 259 260 253 261 269 264 274 279 284 278 273 265 251 241 240 236 193 190 196 195 185 195 170 176 175 171 177 182 183 181 172 170 202 192 184 181 172 186 173 186 217
222 231 277 209 227 209 229 253 252 250 267 271 270 271 269 274 274 277 272 267 260 257 243 240 190 182 170 141 128 126 150 156 157 170 176 174 173 163 159 181 170 188 156 178 178 193 198 218 231
317 345 274 336 219 217 231 255 257 255 253 255 258 262 264 265 269 266 264 263 266 254 225 209 184 174 149 149 158 154 179 155 153 161 163 161 161 157 153 161 174 168 176 195 175 136 225 240 202
259 268 272 276 269 276 277 277 284 271 253 242 245 250 251 266 271 272 268 265 246 252 217 213 201 161 160 155 120 142 136 137 149 158 162 162 159 159 167 167 183 166 180 188 193 190 224 210 182
229 231 251 246 308 298 308 285 282 256 244 250 256 256 254 239 253 265 273 258 254 241 228 193 157 132 126 118 112 83 80 76 94 105 111 142 156 169 163 171 162 181 186 197 194 197 182 182 195
256 220 257 253 205 257 188 287 273 269 263 251 244 255 250 246 251 246 257 265 231 233 133 136 128 134 138 136 126 146 139 148 148 136 122 132 145 165 158 156 176 189 163 180 190 182 178 140 170
244 233 238 225 244 235 248 293 272 226 256 248 239 247 247 249 250 249 250 245 230 149 148 140 127 128 137 129 138 132 115 102 107 106 124 124 145 148 144 169 166 160 178 177 181 175 185 174 145
237 218 229 233 150 250 218 201 278 244 242 246 237 216 236 242 246 249 256 224 181 144 134 137 125 127 127 125 123 133 135 127 114 115 118 131 124 130 159 164 168 165 165 183 191 198 188 186 186
167 85 312 168 187 231 207 197 237 272 305 235 243 248 250 258 268 251 219 183 151 143 134 128 133 124 121 114 116 125 129 140 140 138 136 143 136 154 183 166 161 168 184 189 182 196 195 191 190
181 165 183 184 179 224 248 230 239 231 256 259 263 246 253 258 247 243 202 157 147 133 130 124 133 116 113 112 107 114 129 122 115 125 140 148 165 158 166 169 171 182 191 183 196 192 196 194 203
202 169 193 15 224 242 242 260 278 275 278 278 285 282 263 255 241 189 142 143 139 133 129 136 125 117 116 117 115 112 115 118 134 145 142 150 129 146 163 163 165 192 189 193 191 207 201 202 211
160 196 88 6 217 236 254 254 237 283 250 272 278 276 273 238 160 140 138 134 122 121 120 117 126 128 126 122 124 129 127 127 134 128 142 151 145 146 146 150 178 188 203 192 202 200 201 195 206
348 184 206 169 178 221 296 259 194 202 237 282 295 298 258 202 165 148 136 131 125 119 126 124 123 125 128 125 123 125 134 138 130 136 149 149 143 150 155 170 179 186 189 208 208 203 209 189 191
249 287 136 168 233 249 246 261 307 282 335 319 308 316 301 156 143 139 135 134 132 134 138 135 129 135 139 132 127 138 140 132 142 143 156 153 155 146 146 163 158 175 168 205 217 208 187 179 190